• In Czech Republic
  • List of Countries
  • For 7 days
  • Water Temperature
  • Satellite Maps
  • Weather Map
  • Weather Widgets
  • user-avatar
    Login

    Hourly Weather La Massana

    Today, 26 September, Tuesday

    Time Temperature Precipitation Wind Pressure Humidity
    00:00 +6°C° 0 mm 1 mps 614 mmHg 91%
    01:00 +6°C° 0.1 mm 1 mps 613 mmHg 90%
    02:00 +5°C° 0.1 mm 1 mps 613 mmHg 90%
    03:00 +5°C° 0.1 mm 1 mps 613 mmHg 89%
    04:00 +5°C° 0 mm 1 mps 613 mmHg 89%
    05:00 +4°C° 0 mm 1 mps 612 mmHg 89%
    06:00 +4°C° 0 mm 1 mps 612 mmHg 88%
    07:00 +6°C° 0 mm 1 mps 613 mmHg 81%
    08:00 +8°C° 0 mm 1 mps 614 mmHg 73%
    09:00 +11°C° 0 mm 1 mps 616 mmHg 65%
    10:00 +12°C° 0 mm 1 mps 616 mmHg 60%
    11:00 +13°C° 0 mm 1 mps 616 mmHg 55%
    12:00 +14°C° 0 mm 1 mps 617 mmHg 51%
    13:00 +14°C° 0 mm 1 mps 616 mmHg 54%
    14:00 +13°C° 0 mm 2 mps 616 mmHg 57%
    15:00 +13°C° 0 mm 2 mps 616 mmHg 61%
    16:00 +11°C° 0.1 mm 1 mps 615 mmHg 68%
    17:00 +10°C° 0.1 mm 1 mps 615 mmHg 76%
    18:00 +7°C° 0.1 mm 0 mps 614 mmHg 83%
    19:00 +8°C° 0 mm 1 mps 614 mmHg 85%
    20:00 +8°C° 0 mm 1 mps 614 mmHg 87%
    21:00 +8°C° 0 mm 1 mps 615 mmHg 88%
    22:00 +7°C° 0 mm 1 mps 614 mmHg 90%
    23:00 +7°C° 0 mm 1 mps 614 mmHg 91%

    Tomorrow, 27 September, Wednesday

    Time Temperature Precipitation Wind Pressure Humidity
    00:00 +7°C° 0 mm 1 mps 614 mmHg 92%
    01:00 +7°C° 0 mm 1 mps 614 mmHg 92%
    02:00 +7°C° 0 mm 1 mps 614 mmHg 91%
    03:00 +7°C° 0 mm 1 mps 614 mmHg 91%
    04:00 +6°C° 0 mm 1 mps 614 mmHg 91%
    05:00 +6°C° 0 mm 1 mps 613 mmHg 91%
    06:00 +6°C° 0 mm 1 mps 613 mmHg 91%
    07:00 +8°C° 0 mm 1 mps 614 mmHg 81%
    08:00 +10°C° 0 mm 1 mps 616 mmHg 71%
    09:00 +13°C° 0 mm 1 mps 617 mmHg 61%
    10:00 +14°C° 0 mm 2 mps 617 mmHg 57%
    11:00 +15°C° 0 mm 2 mps 618 mmHg 52%
    12:00 +16°C° 0 mm 2 mps 618 mmHg 47%
    13:00 +16°C° 0 mm 2 mps 618 mmHg 50%
    14:00 +15°C° 0 mm 2 mps 618 mmHg 52%
    15:00 +15°C° 0 mm 2 mps 617 mmHg 54%
    16:00 +13°C° 0 mm 2 mps 617 mmHg 62%
    17:00 +12°C° 0 mm 1 mps 616 mmHg 70%
    18:00 +10°C° 0 mm 1 mps 615 mmHg 78%
    19:00 +9°C° 0 mm 1 mps 616 mmHg 81%
    20:00 +8°C° 0 mm 1 mps 616 mmHg 83%
    21:00 +8°C° 0 mm 1 mps 616 mmHg 86%
    22:00 +8°C° 0 mm 1 mps 616 mmHg 86%
    23:00 +7°C° 0 mm 1 mps 616 mmHg 85%

    Day after tomorrow, 28 September, Thursday

    Time Temperature Precipitation Wind Pressure Humidity
    00:00 +7°C° 0 mm 1 mps 616 mmHg 85%
    01:00 +7°C° 0 mm 1 mps 616 mmHg 83%
    02:00 +7°C° 0 mm 1 mps 616 mmHg 81%
    03:00 +7°C° 0 mm 1 mps 616 mmHg 79%
    04:00 +7°C° 0 mm 1 mps 616 mmHg 77%
    05:00 +7°C° 0 mm 1 mps 616 mmHg 74%
    06:00 +7°C° 0 mm 1 mps 616 mmHg 72%
    07:00 +9°C° 0 mm 1 mps 617 mmHg 64%
    08:00 +12°C° 0 mm 1 mps 619 mmHg 56%
    09:00 +15°C° 0 mm 1 mps 620 mmHg 48%
    10:00 +16°C° 0 mm 1 mps 620 mmHg 46%
    11:00 +18°C° 0 mm 1 mps 620 mmHg 44%
    12:00 +18°C° 0 mm 2 mps 621 mmHg 41%
    13:00 +18°C° 0 mm 2 mps 620 mmHg 44%
    14:00 +17°C° 0 mm 2 mps 620 mmHg 46%
    15:00 +17°C° 0 mm 2 mps 619 mmHg 49%
    16:00 +15°C° 0 mm 1 mps 619 mmHg 58%
    17:00 +13°C° 0 mm 1 mps 618 mmHg 67%
    18:00 +11°C° 0 mm 1 mps 617 mmHg 76%
    19:00 +10°C° 0 mm 1 mps 617 mmHg 78%
    20:00 +9°C° 0 mm 1 mps 617 mmHg 81%
    21:00 +9°C° 0 mm 1 mps 617 mmHg 83%
    22:00 +8°C° 0 mm 1 mps 617 mmHg 83%
    23:00 +8°C° 0 mm 1 mps 617 mmHg 82%

    29 September, Friday

    Time Temperature Precipitation Wind Pressure Humidity
    00:00 +8°C° 0 mm 1 mps 616 mmHg 82%
    01:00 +8°C° 0 mm 1 mps 616 mmHg 80%
    02:00 +8°C° 0 mm 1 mps 616 mmHg 77%
    03:00 +8°C° 0 mm 1 mps 616 mmHg 75%
    04:00 +8°C° 0 mm 1 mps 616 mmHg 71%
    05:00 +8°C° 0 mm 1 mps 616 mmHg 68%
    06:00 +7°C° 0 mm 1 mps 616 mmHg 65%
    07:00 +10°C° 0 mm 1 mps 617 mmHg 57%
    08:00 +13°C° 0 mm 1 mps 618 mmHg 50%
    09:00 +15°C° 0 mm 0 mps 619 mmHg 42%
    10:00 +18°C° 0 mm 1 mps 620 mmHg 41%
    11:00 +19°C° 0 mm 1 mps 620 mmHg 39%
    12:00 +20°C° 0 mm 1 mps 620 mmHg 38%
    13:00 +19°C° 0 mm 1 mps 620 mmHg 41%
    14:00 +19°C° 0 mm 1 mps 619 mmHg 44%
    15:00 +17°C° 0 mm 2 mps 618 mmHg 46%
    16:00 +15°C° 0 mm 1 mps 618 mmHg 55%
    17:00 +13°C° 0 mm 1 mps 617 mmHg 64%
    18:00 +10°C° 0 mm 0 mps 616 mmHg 72%
    19:00 +11°C° 0 mm 1 mps 616 mmHg 74%
    20:00 +10°C° 0 mm 1 mps 616 mmHg 75%
    21:00 +9°C° 0 mm 1 mps 616 mmHg 77%
    22:00 +9°C° 0 mm 1 mps 616 mmHg 75%
    23:00 +9°C° 0 mm 1 mps 616 mmHg 74%

    30 September, Saturday

    Time Temperature Precipitation Wind Pressure Humidity
    00:00 +9°C° 0 mm 1 mps 615 mmHg 73%
    01:00 +9°C° 0 mm 1 mps 615 mmHg 72%
    02:00 +9°C° 0 mm 1 mps 615 mmHg 71%
    03:00 +9°C° 0 mm 1 mps 614 mmHg 70%
    04:00 +8°C° 0 mm 1 mps 614 mmHg 70%
    05:00 +8°C° 0 mm 1 mps 614 mmHg 71%
    06:00 +8°C° 0 mm 1 mps 614 mmHg 71%
    07:00 +10°C° 0 mm 1 mps 615 mmHg 66%
    08:00 +12°C° 0 mm 1 mps 616 mmHg 60%
    09:00 +14°C° 0 mm 1 mps 617 mmHg 55%
    10:00 +15°C° 0.2 mm 1 mps 617 mmHg 56%
    11:00 +15°C° 0.2 mm 1 mps 617 mmHg 56%
    12:00 +16°C° 0.2 mm 2 mps 617 mmHg 57%
    13:00 +15°C° 1 mm 1 mps 616 mmHg 62%
    14:00 +14°C° 1 mm 1 mps 616 mmHg 68%
    15:00 +13°C° 1 mm 1 mps 615 mmHg 73%
    16:00 +12°C° 1.4 mm 1 mps 615 mmHg 77%
    17:00 +11°C° 1.4 mm 1 mps 614 mmHg 81%
    18:00 +10°C° 1.4 mm 1 mps 614 mmHg 85%
    19:00 +10°C° 0.9 mm 1 mps 614 mmHg 86%
    20:00 +10°C° 0.9 mm 1 mps 614 mmHg 88%
    21:00 +9°C° 0.9 mm 1 mps 614 mmHg 89%
    22:00 +9°C° 0.6 mm 1 mps 614 mmHg 90%
    23:00 +9°C° 0.6 mm 1 mps 614 mmHg 90%

    1 October, Sunday

    Time Temperature Precipitation Wind Pressure Humidity
    00:00 +8°C° 0.6 mm 1 mps 614 mmHg 91%
    01:00 +8°C° 0.5 mm 1 mps 614 mmHg 92%
    02:00 +8°C° 0.5 mm 1 mps 613 mmHg 92%
    03:00 +8°C° 0.5 mm 1 mps 613 mmHg 92%
    04:00 +8°C° 0.5 mm 1 mps 613 mmHg 93%
    05:00 +8°C° 0.5 mm 1 mps 613 mmHg 93%
    06:00 +8°C° 0.5 mm 1 mps 614 mmHg 93%
    07:00 +8°C° 0.6 mm 1 mps 614 mmHg 92%
    08:00 +8°C° 0.6 mm 1 mps 614 mmHg 91%
    09:00 +8°C° 0.6 mm 1 mps 615 mmHg 89%
    10:00 +9°C° 0.4 mm 1 mps 615 mmHg 85%
    11:00 +10°C° 0.4 mm 1 mps 615 mmHg 81%
    12:00 +11°C° 0.4 mm 1 mps 615 mmHg 77%
    13:00 +11°C° 0.4 mm 1 mps 615 mmHg 78%
    14:00 +11°C° 0.4 mm 1 mps 615 mmHg 78%
    15:00 +11°C° 0.4 mm 1 mps 615 mmHg 79%
    16:00 +10°C° 0.3 mm 1 mps 614 mmHg 83%
    17:00 +9°C° 0.3 mm 1 mps 614 mmHg 86%
    18:00 +8°C° 0.3 mm 1 mps 614 mmHg 90%
    19:00 +8°C° 0.1 mm 1 mps 614 mmHg 91%
    20:00 +8°C° 0.1 mm 1 mps 614 mmHg 92%
    21:00 +6°C° 0.1 mm 0 mps 614 mmHg 92%
    22:00 +6°C° 0 mm 0 mps 614 mmHg 92%
    23:00 +6°C° 0 mm 0 mps 614 mmHg 92%
    Show more